Retour au catalogue

STARLINK-2130

ActifCommunicationsVLEO
NORAD 47405·PAYLOAD·🇺🇸 United States

Lancé Jan 20, 2021 depuis Cape Canaveral Space Force Station

Loading…

Prochains Passages (prochaines 24 heures)

TLE

FraisSource: CelesTrak SupGP

Époque: Sep 15, 2026, 02:45 UTC

1 47405C 21005BJ  26258.11506944 -.00048698  00000+0 -15661-2 0  2586
2 47405  53.1585 260.8841 0001522  76.5102 146.0827 15.31723508    13

Suivez STARLINK-2130 en temps réel avec AllMySat

Download on the App Store